Regional Weather Roundup
Issued by NWS Columbia, SC

Home | Current Version | Previous Version | Text Only | Print | Product List | Glossary On
Versions: 1 2 3 4 5 6 7 8 9 10 11 12 13 14 15 16 17 18 19 20 21 22 23 24 25 26 27
000
ASUS42 KCAE 280210
RWRCAE
REGIONAL WEATHER ROUNDUP
NATIONAL WEATHER SERVICE COLUMBIA SC
1000 PM EDT TUE JUN 27 2017

NOTE: "FAIR" INDICATES FEW OR NO CLOUDS BELOW 12,000 FEET WITH NO
SIGNIFICANT WEATHER AND/OR OBSTRUCTIONS TO VISIBILITY.

NOT ALL STATIONS ARE QUALITY CONTROLLED BY THE NATIONAL
WEATHER SERVICE. USE DATA WITH CAUTION...ESPECIALLY
DEWPOINT OBSERVATIONS.

SCZ001>056-GAZ040-063>065-077-280300-
...UPSTATE SOUTH CAROLINA...

CITY           SKY/WX    TMP DP  RH WIND       PRES   REMARKS
ANDERSON       MOCLDY    72  56  57 E7        30.08R
LIBERTY        CLEAR     69  55  61 NE5       30.09R
SPARTANBURG    CLEAR     68  55  64 CALM      30.09R
CLEMSON        PTCLDY    74  57  55 E6        30.09R
GREENVILLE     CLEAR     74  47  38 NE6       30.10R
GREENWOOD      CLEAR     68  58  70 CALM      30.09R
GREER          PTCLDY    69  53  56 CALM      30.09R
ROCK HILL      CLEAR     68  57  68 CALM      30.10R
CHESTER        CLEAR     70  54  56 N5        30.10R
LAURENS        CLEAR     66  61  82 NE5       30.08R


...CENTRAL SOUTH CAROLINA...

CITY           SKY/WX    TMP DP  RH WIND       PRES   REMARKS
COLUMBIA APT   PTCLDY    81  58  45 N6        30.05R
COLUMBIA OWENS PTCLDY    78  59  51 CALM      30.06R
MCENTIRE ANGB  MOCLDY    72  67  84 CALM      30.05R
ORANGEBURG     MOCLDY    73  68  84 S3        30.05R
SUMTER SHAW    CLEAR     76  65  69 CALM      30.03S
NEWBERRY       CLEAR     70  61  73 NE5       30.11R
AIKEN          FAIR      73  61  64 CALM      30.09R
BARNWELL       FAIR      77  73  88 CALM      30.05R
MANNING        FAIR      72  70  94 CALM      30.05R
CAMDEN         FAIR      75  57  53 CALM      30.07R
LANCASTER      CLEAR     68  59  73 NE6       30.09R
WINNSBORO      CLEAR     73  59  60 NE5       30.07R


...EASTERN AND COASTAL SOUTH CAROLINA...

CITY           SKY/WX    TMP DP  RH WIND       PRES   REMARKS
MYRTLE BEACH   CLEAR     73  66  78 CALM      30.05
N MYRTLE BCH   PTCLDY    73  68  84 CALM      30.03R
CONWAY         FAIR      70  68  94 CALM      30.04R
MARION         FAIR      72  68  88 CALM      30.04R
HARTSVILLE     FAIR      72  54  53 N6        30.06R
FLORENCE       CLOUDY    75  64  68 N8        30.05R
DARLINGTON     CLEAR     74  60  61 N6        30.07R
CHARLESTON APT PTCLDY    77  63  61 CALM      30.04R
MOUNT PLEASANT FAIR      72  68  88 CALM      30.04R
WALTERBORO     PTCLDY    73  68  83 CALM      30.06R
BEAUFORT       MOCLDY    75  70  84 CALM      30.04R


...EASTERN GEORGIA...

CITY           SKY/WX    TMP DP  RH WIND       PRES   REMARKS
AUGUSTA BUSH F CLOUDY    74  68  81 CALM      30.03R
AUGUSTA DANIEL CLOUDY    81  57  43 NE5       30.05R
SAVANNAH       CLOUDY    77  66  68 CALM      30.04R


...SOUTHERN NORTH CAROLINA...

CITY           SKY/WX    TMP DP  RH WIND       PRES   REMARKS
CHARLOTTE      PTCLDY    72  51  47 NE6       30.10R
MONROE         CLEAR     69  55  60 NE3       30.09R
WADESBORO      CLEAR     65  60  82 CALM      30.08R
ROCKINGHAM     CLEAR     72  58  60 N3        30.07R
ASHEVILLE      CLEAR     64  46  52 CALM      30.15R

$$




USA.gov is the U.S. government's official web portal to all federal, state and local government web resources and services.